DELTA 1 DEB

基本信息
目录编号:
3417
目录名称:
DELTA 1 DEB
国际标识:
1968-069D
轨道中心:
EARTH
物体状态:
在轨
发射日期:
1968-08-16 UTC
轨道信息
数据来源: 国际轨道数据
星历时间: 2026-07-13T09:35:13+0800
半长轴: 7885.66km
偏心率: 0.0066385
轨道倾角: 102.186°
近地点辐角: 9.268°
升交点赤经: 138.587°
平近点角: 53.837°
近地点: 1455.174km
远地点: 1559.872km
周期: 116.149分钟
每日圈数: 12.397831
详细信息
发射场:
AFWTR
轨道高度:
LEO
数据来源:
AOE Integration Group
参考系:
TEME
时间系统:
UTC
历元类型:
SGP4
2D轨道图
3D轨道图
轨道高度分析图
轨道倾角分析图
轨道综合分析图
查看轨道综合分析图